Vorticity
8 5 1 10 15 3 -2 11 6 15 29 -0 2 11 13 18 13 8 27 -17 6 4 8 6 6 7 7 7 6 5 4 4 5 7 7 6 4 4 4 4 5 6 5 4
5 5 13 6 6 11 2 12 -2 29 12 12 5 13 2 17 9 10 6 13 2 5 1 6 8 9 9 8 9 8 7 8 9 9 7 6 4 4 4 4 6 6 5 6
16 7 21 5 10 10 6 10 -3 16 2 22 18 15 17 7 17 8 5 5 5 3 3 4 9 10 8 7 7 8 9 10 10 8 6 5 4 5 5 6 7 5 4 5
14 15 17 10 21 5 17 -1 17 -9 18 -3 15 36 19 4 11 7 5 -5 -2 4 -2 3 6 7 6 6 6 7 8 8 7 7 6 5 4 5 5 8 6 5 6 5
24 10 14 15 13 11 12 9 27 1 7 -2 19 -15 51 10 6 6 5 7 5 -1 5 7 11 7 4 5 6 7 7 7 6 5 5 5 5 5 8 7 5 5 5 6
21 24 8 8 15 10 2 23 29 -2 10 3 -0 -14 37 18 9 8 7 2 14 -2 -4 13 7 5 5 5 5 6 7 8 8 7 6 5 7 7 8 7 5 6 6 6
2 5 32 -3 9 17 26 9 7 9 14 0 29 18 -44 37 11 9 1 7 0 -1 3 9 10 9 8 6 4 4 6 6 6 6 6 7 8 8 8 6 6 6 6 5
9 7 8 30 -9 18 3 -11 0 7 8 17 10 16 -4 6 -3 35 9 8 4 2 4 5 9 8 8 6 4 5 7 7 5 7 9 9 9 8 6 5 6 6 5 5
10 11 7 14 7 -6 33 -3 -0 7 15 4 -3 15 -29 24 14 3 -7 14 20 10 6 6 8 8 8 9 7 5 5 9 8 10 11 8 7 6 5 6 6 6 5 10
12 9 12 15 16 18 5 19 6 11 5 7 23 22 -31 30 -6 4 -9 17 5 26 24 5 6 4 6 7 5 5 7 5 10 10 8 8 6 6 6 7 6 4 9 10
7 10 20 6 16 4 4 8 15 -21 6 10 5 28 39 31 12 -7 8 12 13 10 3 10 18 6 4 4 3 6 11 7 10 9 8 7 6 6 6 6 5 7 9 9
13 9 9 15 13 16 1 3 8 -21 17 4 5 1 -20 10 24 51 11 -12 10 19 18 4 20 15 8 6 8 12 10 10 10 8 7 6 6 6 7 6 6 8 9 10
15 10 9 27 26 5 10 5 -3 6 3 2 -8 -7 -23 28 24 -7 -14 17 43 14 23 10 8 11 9 6 11 10 9 11 9 7 7 7 6 6 6 5 7 8 10 12
0 11 -14 -4 3 32 24 6 -3 6 -11 8 -24 -6 8 -4 -14 -20 -16 -5 16 29 18 17 19 12 7 11 9 10 10 9 8 8 7 5 6 7 6 6 7 10 12 11
11 1 7 11 9 -1 -7 11 22 13 5 -15 -0 -0 11 8 16 -2 -2 13 24 14 11 14 17 14 12 10 9 10 11 10 8 7 5 5 6 7 5 6 9 11 12 10
10 -0 7 10 17 14 10 11 8 3 1 6 10 -0 12 25 23 16 18 12 5 -2 -1 7 12 12 14 12 12 12 10 9 7 5 4 6 7 6 6 8 11 13 11 8
12 9 15 22 12 15 38 47 34 15 10 9 6 6 7 7 9 6 4 -2 -0 7 12 15 8 9 9 11 11 9 9 7 5 3 4 6 6 6 8 10 13 12 9 8
-3 8 7 7 8 17 12 16 15 8 9 17 17 19 15 12 15 18 27 21 9 1 -0 14 13 10 10 10 9 7 7 7 7 6 8 9 9 10 11 13 12 9 7 6
9 8 -8 -4 20 -18 8 8 29 19 -5 -1 4 20 15 17 21 12 10 12 16 18 24 19 5 5 6 8 10 9 8 7 6 9 10 10 11 10 13 12 8 7 6 7
12 11 -13 18 6 -3 -1 3 -9 -11 17 35 7 1 1 3 10 8 13 19 21 19 15 16 23 18 5 6 7 5 4 7 11 11 12 12 10 12 11 8 7 7 8 8
20 22 1 -2 -5 22 2 12 16 28 2 5 2 10 6 5 8 11 10 13 16 16 15 15 18 21 16 13 11 9 10 11 12 10 10 12 11 9 7 7 8 9 9 8
1 13 25 34 7 14 42 30 14 5 5 19 2 7 6 0 -3 -3 -2 -1 0 4 7 8 12 19 19 15 13 9 9 10 9 12 13 11 9 7 8 9 9 8 8 3
17 -3 -10 -21 1 -9 -30 -26 -12 2 12 7 5 3 3 3 5 7 5 9 13 14 15 15 14 12 11 12 10 10 10 9 14 16 12 8 7 8 9 9 7 -1 4 14
-2 1 8 5 7 4 -1 5 -6 -7 2 24 -1 10 17 8 6 2 9 9 12 14 11 8 10 12 13 14 14 14 8 14 14 11 7 7 9 10 6 -5 5 15 12 11
-7 -7 -8 1 -2 5 13 19 25 17 13 17 -8 -8 1 3 7 7 17 13 9 9 10 10 8 10 11 11 11 9 13 15 12 8 8 9 5 -5 1 13 16 17 12 9
3 13 16 12 32 27 22 22 19 16 23 22 15 15 11 11 -1 8 8 8 2 -3 5 8 12 12 12 11 10 11 11 10 9 6 5 -3 2 8 15 19 16 11 10 10
Height
3087 3089 3089 3091 3092 3093 3094 3096 3098 3100 3102 3106 3108 3111 3115 3119 3124 3128 3132 3141 3145 3149 3150 3152 3153 3155 3157 3159 3161 3163 3165 3166 3167 3169 3170 3170 3170 3171 3171 3170 3169 3168 3167 3165
3086 3085 3087 3088 3089 3091 3092 3094 3097 3099 3101 3105 3106 3109 3113 3116 3120 3125 3130 3135 3141 3144 3146 3147 3150 3152 3154 3155 3157 3159 3160 3162 3163 3164 3166 3166 3166 3167 3167 3166 3165 3164 3163 3161
3083 3084 3084 3085 3087 3088 3090 3091 3095 3099 3100 3102 3105 3108 3109 3112 3116 3122 3126 3131 3135 3139 3141 3144 3146 3148 3150 3151 3153 3154 3156 3157 3159 3160 3161 3162 3163 3163 3163 3162 3161 3160 3158 3156
3083 3082 3082 3083 3085 3087 3088 3090 3094 3098 3100 3101 3102 3103 3104 3108 3113 3117 3122 3125 3129 3133 3138 3140 3141 3143 3146 3146 3147 3149 3151 3153 3154 3156 3157 3158 3159 3159 3158 3157 3156 3155 3154 3152
3084 3081 3082 3083 3084 3086 3088 3089 3093 3096 3099 3100 3101 3102 3100 3104 3107 3111 3115 3120 3125 3129 3133 3136 3137 3139 3140 3141 3143 3145 3147 3148 3150 3151 3152 3153 3154 3154 3153 3153 3152 3150 3149 3148
3082 3082 3083 3084 3084 3086 3088 3091 3092 3095 3098 3099 3098 3100 3097 3097 3100 3107 3113 3117 3122 3124 3130 3130 3132 3133 3135 3137 3139 3141 3142 3144 3146 3147 3148 3148 3149 3149 3149 3148 3147 3146 3144 3142
3083 3082 3082 3083 3085 3086 3087 3090 3094 3098 3098 3094 3094 3096 3091 3094 3100 3104 3109 3114 3118 3121 3122 3124 3126 3128 3130 3132 3134 3136 3138 3139 3140 3142 3143 3143 3144 3144 3144 3143 3142 3141 3139 3137
3082 3083 3082 3083 3084 3085 3086 3089 3088 3094 3095 3091 3094 3090 3086 3092 3095 3099 3103 3108 3112 3113 3116 3118 3121 3122 3124 3127 3129 3131 3132 3133 3135 3136 3137 3138 3138 3138 3138 3137 3136 3135 3134 3132
3079 3080 3081 3081 3082 3085 3085 3087 3088 3087 3088 3088 3086 3086 3086 3088 3091 3094 3098 3101 3104 3107 3109 3112 3113 3115 3118 3120 3123 3125 3127 3128 3129 3129 3130 3131 3131 3131 3131 3131 3130 3130 3129 3126
3079 3079 3079 3081 3082 3082 3083 3086 3087 3085 3089 3087 3079 3078 3078 3082 3086 3089 3092 3094 3097 3098 3100 3103 3105 3108 3111 3114 3116 3118 3120 3121 3122 3122 3123 3124 3125 3125 3125 3125 3124 3123 3121 3120
3077 3078 3079 3078 3078 3080 3082 3081 3082 3084 3083 3081 3081 3071 3070 3074 3078 3082 3084 3086 3088 3090 3093 3096 3098 3102 3105 3107 3110 3112 3113 3114 3115 3116 3116 3117 3118 3119 3119 3118 3117 3116 3115 3113
3076 3075 3074 3075 3075 3076 3078 3078 3079 3079 3079 3078 3078 3071 3069 3070 3071 3074 3078 3081 3081 3083 3085 3089 3091 3094 3098 3101 3103 3104 3105 3106 3108 3109 3110 3111 3111 3112 3112 3112 3111 3110 3108 3107
3073 3073 3072 3072 3075 3072 3071 3072 3073 3075 3075 3072 3075 3070 3067 3067 3067 3070 3072 3074 3074 3076 3079 3082 3084 3087 3090 3092 3094 3096 3097 3099 3100 3101 3102 3104 3105 3105 3105 3104 3104 3103 3102 3101
3071 3070 3069 3067 3065 3065 3065 3066 3069 3070 3069 3066 3064 3063 3065 3068 3068 3068 3068 3070 3072 3071 3073 3075 3077 3080 3083 3085 3087 3088 3090 3091 3092 3094 3096 3097 3097 3098 3098 3097 3097 3096 3095 3094
3066 3065 3065 3064 3064 3062 3062 3062 3062 3061 3062 3061 3055 3055 3056 3060 3064 3064 3064 3065 3066 3068 3069 3070 3072 3074 3076 3078 3079 3081 3082 3085 3086 3088 3089 3090 3090 3091 3091 3091 3090 3090 3089 3088
3063 3061 3059 3059 3059 3058 3055 3055 3055 3054 3053 3051 3051 3044 3051 3054 3057 3058 3059 3059 3061 3062 3063 3064 3066 3067 3069 3071 3073 3074 3076 3077 3079 3081 3082 3083 3084 3085 3084 3083 3083 3083 3082 3081
3059 3059 3057 3055 3055 3054 3050 3044 3045 3045 3046 3047 3045 3042 3045 3047 3049 3051 3052 3052 3053 3054 3056 3057 3059 3061 3062 3064 3065 3067 3068 3070 3071 3073 3074 3075 3076 3076 3077 3076 3076 3075 3075 3074
3052 3055 3056 3054 3053 3054 3042 3041 3041 3042 3041 3041 3040 3041 3040 3040 3040 3041 3040 3041 3043 3045 3048 3050 3051 3053 3055 3056 3057 3058 3061 3063 3064 3066 3066 3067 3068 3068 3068 3068 3068 3067 3067 3067
3044 3047 3050 3051 3049 3042 3039 3038 3039 3038 3038 3037 3036 3036 3035 3034 3034 3035 3034 3035 3036 3036 3037 3040 3042 3044 3046 3048 3049 3050 3052 3054 3056 3057 3058 3059 3059 3060 3060 3061 3060 3060 3060 3059
3036 3039 3043 3044 3044 3042 3036 3035 3035 3035 3032 3032 3031 3030 3031 3031 3031 3030 3029 3029 3029 3030 3031 3032 3034 3035 3036 3038 3040 3042 3044 3046 3047 3048 3050 3051 3051 3052 3053 3053 3053 3053 3053 3052
3030 3032 3033 3035 3036 3032 3032 3032 3031 3034 3033 3028 3029 3028 3028 3027 3027 3027 3026 3026 3026 3025 3025 3025 3026 3027 3030 3031 3032 3034 3036 3038 3039 3040 3041 3042 3044 3044 3045 3046 3046 3045 3045 3044
3025 3025 3026 3030 3032 3028 3024 3026 3029 3028 3026 3025 3024 3024 3024 3024 3023 3023 3023 3022 3022 3022 3021 3021 3021 3021 3022 3024 3025 3028 3030 3031 3031 3032 3033 3034 3036 3037 3037 3037 3037 3037 3037 3036
3019 3019 3019 3021 3019 3020 3020 3022 3022 3023 3023 3021 3019 3018 3017 3017 3017 3017 3017 3017 3016 3016 3015 3015 3015 3015 3016 3016 3018 3019 3021 3021 3023 3024 3025 3026 3027 3028 3028 3028 3028 3028 3027 3026
3010 3012 3011 3013 3013 3015 3016 3014 3015 3015 3014 3014 3012 3010 3009 3009 3009 3009 3009 3010 3009 3008 3008 3008 3009 3009 3009 3010 3011 3012 3012 3013 3014 3016 3018 3018 3018 3018 3019 3018 3018 3017 3017 3018
3003 3005 3004 3000 3003 3006 3006 3006 3006 3005 3004 3003 3002 3001 3001 3000 3000 2999 2999 3000 3001 3001 3001 3000 3001 3002 3002 3003 3004 3004 3005 3006 3007 3007 3008 3008 3008 3008 3008 3008 3008 3008 3008 3009
2990 2992 2993 2988 2996 2995 2994 2996 2994 2992 2992 2992 2990 2989 2989 2988 2989 2989 2990 2991 2990 2992 2992 2992 2992 2992 2993 2993 2993 2994 2995 2996 2997 2997 2997 2997 2998 2998 2998 2998 2999 3000 3001 3002